This is the latest recevied weather packets stored in our database for station/object EA5AFP-10. If no packets are shown the sender has not sent any weather packets the latest 1 day(s).
| Time | Temp. | Humidity | Pressure | Rain* | Wind** | Luminosity | Snow |
|---|---|---|---|---|---|---|---|
| 1777980994 | 23.33° C | 4% | - | 0 mm | 3.13 m/s, 0° | - | - |
| 1777980729 | 22.78° C | 3% | - | 0 mm | 1.34 m/s, 292° | - | - |
| 1777980433 | 23.33° C | 3% | - | 0 mm | 4.02 m/s, 270° | - | - |
| 1777980276 | 23.89° C | 4% | - | 0 mm | 3.58 m/s, 315° | - | - |
| 1777980235 | 23.33° C | 4% | - | 0 mm | 3.58 m/s, 292° | - | - |
| 1777980011 | 23.89° C | 4% | - | 0 mm | 1.34 m/s, 315° | - | - |
| 1777979726 | 23.89° C | 4% | - | 0 mm | 1.34 m/s, 315° | - | - |
| 1777979649 | 23.89° C | 3% | - | 0 mm | 1.79 m/s, 270° | - | - |
| 1777979453 | 23.89° C | 3% | - | 0 mm | 1.79 m/s, 292° | - | - |
| 1777979164 | 23.89° C | 3% | - | 0 mm | 1.79 m/s, 292° | - | - |
| 1777979131 | 23.89° C | 3% | - | 0 mm | 1.79 m/s, 292° | - | - |
| 1777978876 | 23.89° C | 3% | - | 0 mm | 1.34 m/s, 270° | - | - |
| 1777978629 | 23.89° C | 4% | - | 0 mm | 1.34 m/s, 45° | - | - |
| 1777978629 | 23.89° C | 4% | - | 0 mm | 1.34 m/s, 45° | - | - |
| 1777978625 | 23.89° C | 4% | - | 0 mm | 1.34 m/s, 45° | - | - |
| 1777978525 | 23.89° C | 4% | - | 0 mm | 1.34 m/s, 45° | - | - |
| 1777978361 | 23.33° C | 3% | - | 0 mm | 1.34 m/s, 90° | - | - |
| 1777978228 | 23.33° C | 3% | - | 0 mm | 2.24 m/s, 45° | - | - |
| 1777977943 | 23.33° C | 4% | - | 0 mm | 2.68 m/s, 315° | - | - |
| 1777977857 | 22.78° C | 3% | - | 0 mm | 3.58 m/s, 315° | - | - |
| 1777977668 | 22.78° C | 4% | - | 0 mm | 0.89 m/s, 0° | - | - |
| 1777977380 | 23.33° C | 4% | - | 0 mm | 1.34 m/s, 337° | - | - |
| 1777977092 | 23.33° C | 4% | - | 0 mm | 2.68 m/s, 337° | - | - |
| 1777976838 | 23.33° C | 3% | - | 0 mm | 2.24 m/s, 292° | - | - |
| 1777976721 | 23.33° C | 3% | - | 0 mm | 0.89 m/s, 292° | - | - |
* Rain latest hour (hover to see other rain measurements)
** Current wind speed in m/s (hover to see current wind gust speed)